BNZ1055 YMAV-YMAV

Flight info

Callsign BNZ1055
Flight time N/A
Altitude 3500
Route AV
Aircraft B38M/M-SDE1FGHILORVWXY/HB1

Departure

Time 2026-04-18 12:16
Airport Melbourne Avalon International Airport (YMAV)

Arrival

Time N/A
Airport Melbourne Avalon International Airport (YMAV)
Time Latitude Longitude Altitude Speed Heading
2026-04-18 11:51 -38.02735 144.47422 35 ft 0 kts
2026-04-18 12:05 -38.02736 144.47422 35 ft 2 kts
2026-04-18 12:06 -38.02752 144.47419 35 ft 2 kts
2026-04-18 12:06 -38.02768 144.47416 35 ft 2 kts
2026-04-18 12:06 -38.02784 144.47416 35 ft 2 kts 341°
2026-04-18 12:06 -38.02798 144.47426 35 ft 2 kts 309°
2026-04-18 12:07 -38.02806 144.47444 35 ft 2 kts 282°
2026-04-18 12:07 -38.02806 144.47452 35 ft 0 kts 274°
2026-04-18 12:10 -38.02806 144.47444 35 ft 2 kts 274°
2026-04-18 12:10 -38.02805 144.47414 35 ft 5 kts 274°
2026-04-18 12:10 -38.02802 144.47361 35 ft 7 kts 275°
2026-04-18 12:11 -38.02794 144.47287 34 ft 10 kts 277°
2026-04-18 12:11 -38.02786 144.47207 34 ft 5 kts 277°
2026-04-18 12:11 -38.02786 144.47205 34 ft 0 kts 277°
2026-04-18 12:14 -38.02786 144.47202 34 ft 1 kts 277°
2026-04-18 12:14 -38.02774 144.47168 34 ft 9 kts 298°
2026-04-18 12:14 -38.02741 144.47064 33 ft 15 kts 282°
2026-04-18 12:15 -38.02762 144.46936 32 ft 17 kts 199°
2026-04-18 12:15 -38.02796 144.46930 32 ft 2 kts 187°
2026-04-18 12:15 -38.02800 144.46929 32 ft 0 kts 187°
2026-04-18 12:15 -38.02813 144.46927 32 ft 17 kts 187°
2026-04-18 12:16 -38.03226 144.46860 35 ft 101 kts 187°
2026-04-18 12:16 -38.04161 144.46701 68 ft 163 kts 187°
2026-04-18 12:16 -38.05386 144.46483 611 ft 188 kts 188°
2026-04-18 12:16 -38.06740 144.46250 1393 ft 205 kts 186°
2026-04-18 12:17 -38.08184 144.46033 2163 ft 217 kts 185°
2026-04-18 12:17 -38.09774 144.45812 2281 ft 231 kts 183°
2026-04-18 12:17 -38.11306 144.46067 2404 ft 217 kts 156°
2026-04-18 12:17 -38.12426 144.47237 2424 ft 207 kts 121°
2026-04-18 12:18 -38.12738 144.48965 2443 ft 202 kts 81°
2026-04-18 12:18 -38.12111 144.50486 2320 ft 196 kts 44°
2026-04-18 12:18 -38.10979 144.51418 2117 ft 195 kts 22°
2026-04-18 12:18 -38.09682 144.51894 1941 ft 194 kts 13°
2026-04-18 12:19 -38.08360 144.52249 1903 ft 194 kts 12°
2026-04-18 12:19 -38.07034 144.52585 1949 ft 195 kts 12°
2026-04-18 12:19 -38.05705 144.52921 1985 ft 195 kts 12°
2026-04-18 12:19 -38.04372 144.53257 2005 ft 195 kts 12°
2026-04-18 12:20 -38.03041 144.53594 2005 ft 195 kts 12°
2026-04-18 12:20 -38.01709 144.53930 2002 ft 195 kts 12°
2026-04-18 12:20 -38.00379 144.54260 2002 ft 195 kts 12°
2026-04-18 12:20 -37.99051 144.54589 2000 ft 195 kts 12°
2026-04-18 12:21 -37.97722 144.54918 1995 ft 195 kts 12°
2026-04-18 12:21 -37.96410 144.55242 1982 ft 195 kts 12°
2026-04-18 12:21 -37.95081 144.55567 1983 ft 195 kts
2026-04-18 12:21 -37.93758 144.55367 1924 ft 194 kts 333°
2026-04-18 12:22 -37.92814 144.54187 1928 ft 194 kts 295°
2026-04-18 12:22 -37.92534 144.52536 1997 ft 188 kts 273°
2026-04-18 12:22 -37.92490 144.50950 1958 ft 177 kts 265°
2026-04-18 12:22 -37.92873 144.49502 1785 ft 173 kts 236°
2026-04-18 12:23 -37.93723 144.48478 1656 ft 164 kts 207°
2026-04-18 12:23 -37.94793 144.48135 1492 ft 156 kts 181°
2026-04-18 12:23 -37.95856 144.48039 1370 ft 152 kts 184°
2026-04-18 12:23 -37.96904 144.47886 1227 ft 151 kts 186°
2026-04-18 12:24 -37.97945 144.47722 1033 ft 152 kts 187°
2026-04-18 12:24 -37.99001 144.47549 836 ft 154 kts 187°
2026-04-18 12:24 -38.00069 144.47375 637 ft 156 kts 187°
2026-04-18 12:24 -38.01147 144.47193 418 ft 156 kts 187°
2026-04-18 12:25 -38.02220 144.47014 179 ft 155 kts 187°
2026-04-18 12:25 -38.03268 144.46844 37 ft 144 kts 187°
2026-04-18 12:25 -38.03888 144.46741 34 ft 129 kts 187°
2026-04-18 12:25 -38.04958 144.46564 109 ft 182 kts 187°
2026-04-18 12:26 -38.06859 144.46246 889 ft 224 kts 187°
2026-04-18 12:26 -38.07894 144.46067 1516 ft 227 kts 187°
2026-04-18 12:26 -38.09429 144.45878 1878 ft 216 kts 175°
2026-04-18 12:26 -38.10807 144.46501 1983 ft 211 kts 141°
2026-04-18 12:27 -38.11674 144.47958 2015 ft 209 kts 110°
2026-04-18 12:27 -38.11842 144.49774 2017 ft 209 kts 82°
2026-04-18 12:27 -38.11340 144.51498 1978 ft 211 kts 56°
2026-04-18 12:27 -38.09875 144.53072 2063 ft 212 kts 22°
2026-04-18 12:28 -38.08917 144.53445 2085 ft 214 kts 14°
2026-04-18 12:28 -38.07463 144.53852 1987 ft 214 kts 12°
2026-04-18 12:28 -38.06005 144.54224 1977 ft 214 kts 12°
2026-04-18 12:28 -38.04548 144.54596 1998 ft 214 kts 12°
2026-04-18 12:29 -38.03086 144.54968 1997 ft 214 kts 12°
2026-04-18 12:29 -38.01626 144.55337 1995 ft 214 kts 12°
2026-04-18 12:29 -38.00167 144.55702 1999 ft 214 kts 12°
2026-04-18 12:29 -37.98707 144.56067 1998 ft 214 kts 12°
2026-04-18 12:30 -37.97245 144.56432 1998 ft 214 kts 12°
2026-04-18 12:30 -37.95785 144.56796 1985 ft 214 kts 12°
2026-04-18 12:30 -37.94729 144.57061 1987 ft 214 kts 12°
2026-04-18 12:31 -37.94668 144.57076 1991 ft 214 kts 12°
2026-04-18 12:31 -37.93209 144.57439 1990 ft 214 kts 12°
2026-04-18 12:31 -37.91733 144.57565 1951 ft 214 kts 348°
2026-04-18 12:31 -37.90443 144.56692 1945 ft 213 kts 313°
2026-04-18 12:32 -37.89740 144.55061 1985 ft 214 kts 285°
2026-04-18 12:32 -37.89398 144.53219 2016 ft 216 kts 282°
2026-04-18 12:32 -37.89232 144.51355 1961 ft 208 kts 261°
2026-04-18 12:32 -37.89803 144.49826 1904 ft 186 kts 224°
2026-04-18 12:33 -37.90864 144.48961 1924 ft 183 kts 198°
2026-04-18 12:33 -37.92117 144.48668 1950 ft 184 kts 185°
2026-04-18 12:33 -37.93390 144.48493 1912 ft 184 kts 185°
2026-04-18 12:33 -37.94662 144.48286 1733 ft 184 kts 186°
2026-04-18 12:34 -37.95880 144.48078 1506 ft 165 kts 186°
2026-04-18 12:34 -37.96957 144.47891 1376 ft 154 kts 186°
2026-04-18 12:34 -37.98017 144.47713 1135 ft 153 kts 187°
2026-04-18 12:34 -37.99070 144.47540 897 ft 152 kts 187°
2026-04-18 12:35 -38.00114 144.47368 662 ft 151 kts 187°
2026-04-18 12:35 -38.01158 144.47191 411 ft 151 kts 187°
2026-04-18 12:35 -38.02197 144.47023 178 ft 150 kts 187°
2026-04-18 12:35 -38.03217 144.46852 37 ft 141 kts 187°
2026-04-18 12:36 -38.04121 144.46700 35 ft 133 kts 187°
2026-04-18 12:36 -38.05273 144.46509 145 ft 194 kts 187°
2026-04-18 12:36 -38.06649 144.46282 1035 ft 203 kts 187°
2026-04-18 12:36 -38.08091 144.46057 1822 ft 215 kts 186°
2026-04-18 12:37 -38.09566 144.45892 1900 ft 209 kts 176°
2026-04-18 12:37 -38.10967 144.46387 2058 ft 211 kts 149°
2026-04-18 12:37 -38.11965 144.47692 2013 ft 208 kts 116°
2026-04-18 12:37 -38.12203 144.49464 2014 ft 206 kts 78°
2026-04-18 12:38 -38.11540 144.51060 2088 ft 210 kts 44°
2026-04-18 12:38 -38.10280 144.51979 2064 ft 212 kts 17°
2026-04-18 12:38 -38.08850 144.52429 2134 ft 213 kts 12°
2026-04-18 12:38 -38.07393 144.52806 2063 ft 213 kts 12°
2026-04-18 12:39 -38.05940 144.53176 1986 ft 213 kts 12°
2026-04-18 12:39 -38.04489 144.53546 1952 ft 213 kts 12°
2026-04-18 12:39 -38.03038 144.53917 1973 ft 213 kts 12°
2026-04-18 12:39 -38.01585 144.54287 1974 ft 213 kts 12°
2026-04-18 12:40 -38.00132 144.54650 1975 ft 213 kts 12°
2026-04-18 12:40 -37.98678 144.55014 1972 ft 213 kts 12°
2026-04-18 12:40 -37.97227 144.55375 1972 ft 213 kts 12°
2026-04-18 12:40 -37.95798 144.55732 1982 ft 213 kts 12°
2026-04-18 12:41 -37.94368 144.56088 1984 ft 213 kts 12°
2026-04-18 12:41 -37.92898 144.56445 1984 ft 213 kts
2026-04-18 12:41 -37.91473 144.56204 1942 ft 212 kts 334°
2026-04-18 12:41 -37.90395 144.54972 1958 ft 212 kts 299°
2026-04-18 12:42 -37.89914 144.53206 2006 ft 214 kts 283°
2026-04-18 12:42 -37.89628 144.51355 1992 ft 214 kts 273°
2026-04-18 12:42 -37.89946 144.49640 1920 ft 190 kts 236°
2026-04-18 12:42 -37.90937 144.48655 1964 ft 183 kts 198°
2026-04-18 12:43 -37.92197 144.48472 1886 ft 183 kts 176°
2026-04-18 12:43 -37.93473 144.48459 1747 ft 184 kts 186°
2026-04-18 12:43 -37.94735 144.48242 1612 ft 182 kts 186°
2026-04-18 12:43 -37.95922 144.48056 1478 ft 160 kts 186°
2026-04-18 12:44 -37.96983 144.47879 1313 ft 151 kts 186°
2026-04-18 12:44 -37.98023 144.47708 1068 ft 151 kts 187°
2026-04-18 12:44 -37.99068 144.47538 827 ft 152 kts 187°
2026-04-18 12:44 -38.00126 144.47369 617 ft 154 kts 188°
2026-04-18 12:45 -38.01186 144.47197 377 ft 153 kts 188°
2026-04-18 12:45 -38.02240 144.47020 159 ft 152 kts 188°
2026-04-18 12:45 -38.03271 144.46846 37 ft 142 kts 188°
2026-04-18 12:45 -38.04191 144.46693 35 ft 140 kts 188°
2026-04-18 12:46 -38.05388 144.46507 221 ft 196 kts 187°
2026-04-18 12:46 -38.06783 144.46518 1153 ft 203 kts 162°
2026-04-18 12:46 -38.07916 144.47521 1631 ft 204 kts 122°
2026-04-18 12:46 -38.08239 144.49259 1822 ft 210 kts 79°
2026-04-18 12:47 -38.07560 144.50842 1920 ft 210 kts 40°
2026-04-18 12:47 -38.06246 144.51520 1936 ft 196 kts
2026-04-18 12:47 -38.04933 144.51564 1922 ft 186 kts
2026-04-18 12:47 -38.03636 144.51542 1904 ft 187 kts 358°
2026-04-18 12:48 -38.02344 144.51463 1866 ft 183 kts 356°
2026-04-18 12:48 -38.01112 144.51325 1784 ft 169 kts 354°
2026-04-18 12:48 -38.00019 144.51154 1822 ft 156 kts 352°
2026-04-18 12:48 -37.98961 144.50885 1746 ft 152 kts 336°
2026-04-18 12:49 -37.98242 144.49983 1711 ft 149 kts 294°
2026-04-18 12:49 -37.98094 144.48671 1780 ft 152 kts 261°
2026-04-18 12:49 -37.98566 144.47475 1542 ft 156 kts 222°
2026-04-18 12:49 -37.99502 144.46948 1111 ft 152 kts 181°
2026-04-18 12:50 -38.00552 144.47124 660 ft 153 kts 172°
2026-04-18 12:50 -38.01621 144.47102 314 ft 153 kts 186°
2026-04-18 12:50 -38.02673 144.46944 94 ft 151 kts 187°
2026-04-18 12:50 -38.03677 144.46774 38 ft 145 kts 186°
2026-04-18 12:51 -38.04876 144.46577 230 ft 196 kts 189°
2026-04-18 12:51 -38.06363 144.46288 902 ft 233 kts 190°
2026-04-18 12:51 -38.08055 144.45933 1951 ft 255 kts 187°
2026-04-18 12:51 -38.09834 144.46033 2901 ft 259 kts 165°
2026-04-18 12:52 -38.11415 144.47075 3138 ft 258 kts 138°
2026-04-18 12:52 -38.12434 144.48931 3281 ft 260 kts 110°
2026-04-18 12:52 -38.12653 144.51212 3432 ft 269 kts 83°
2026-04-18 12:52 -38.11928 144.53442 3470 ft 284 kts 51°
2026-04-18 12:53 -38.10300 144.54938 3530 ft 300 kts 21°
2026-04-18 12:53 -38.08227 144.55630 3610 ft 318 kts 12°
2026-04-18 12:53 -38.06043 144.56400 3652 ft 334 kts 19°
2026-04-18 12:53 -38.03803 144.57334 3713 ft 342 kts 18°
2026-04-18 12:54 -38.01522 144.58261 3825 ft 346 kts 18°
2026-04-18 12:54 -37.99217 144.59180 3922 ft 348 kts 17°
2026-04-18 12:54 -37.96900 144.60094 3962 ft 349 kts 17°
2026-04-18 12:54 -37.94582 144.61004 3977 ft 349 kts 17°
2026-04-18 12:55 -37.92268 144.61910 3977 ft 349 kts 17°
2026-04-18 12:55 -37.89949 144.62818 3980 ft 349 kts 17°
2026-04-18 12:55 -37.87628 144.63726 3979 ft 349 kts 17°
2026-04-18 12:55 -37.85313 144.64631 3976 ft 349 kts 17°
2026-04-18 12:56 -37.82991 144.65538 3978 ft 349 kts 17°
2026-04-18 12:56 -37.80677 144.66442 3976 ft 349 kts 17°
2026-04-18 12:56 -37.78357 144.67347 3976 ft 349 kts 17°
2026-04-18 12:56 -37.76035 144.68253 3975 ft 349 kts 17°
2026-04-18 12:57 -37.73717 144.69156 3974 ft 349 kts 17°
2026-04-18 12:57 -37.71396 144.70060 3974 ft 349 kts 17°
2026-04-18 12:57 -37.69090 144.70957 3974 ft 341 kts 17°
2026-04-18 12:57 -37.66882 144.71816 3955 ft 324 kts 17°
2026-04-18 12:58 -37.64769 144.72637 3842 ft 312 kts 17°
2026-04-18 12:58 -37.62733 144.73428 3716 ft 301 kts 17°
2026-04-18 12:58 -37.60766 144.74192 3594 ft 289 kts 17°
2026-04-18 12:58 -37.58889 144.74920 3463 ft 275 kts 17°
2026-04-18 12:59 -37.57105 144.75613 3330 ft 262 kts 18°
2026-04-18 12:59 -37.55411 144.76258 3189 ft 246 kts 14°
2026-04-18 12:59 -37.53751 144.76398 3054 ft 234 kts 355°
2026-04-18 12:59 -37.52189 144.76162 3034 ft 219 kts 353°
2026-04-18 13:00 -37.50718 144.75910 3017 ft 205 kts 354°
2026-04-18 13:00 -37.49380 144.76200 2990 ft 195 kts 36°
2026-04-18 13:00 -37.48669 144.77526 2922 ft 187 kts 85°
2026-04-18 13:00 -37.48840 144.79109 2987 ft 185 kts 119°
2026-04-18 13:01 -37.49707 144.80268 3010 ft 184 kts 151°
2026-04-18 13:01 -37.50907 144.80813 3016 ft 185 kts 169°
2026-04-18 13:01 -37.52185 144.81067 3001 ft 186 kts 172°
2026-04-18 13:01 -37.53469 144.81292 2810 ft 186 kts 172°
2026-04-18 13:02 -37.54726 144.81521 2585 ft 175 kts 171°
2026-04-18 13:02 -37.55862 144.81732 2386 ft 155 kts 171°
2026-04-18 13:02 -37.56884 144.81921 2188 ft 146 kts 171°
2026-04-18 13:02 -37.57885 144.82107 1985 ft 145 kts 171°
2026-04-18 13:03 -37.58883 144.82292 1779 ft 145 kts 171°
2026-04-18 13:03 -37.60886 144.82665 1375 ft 146 kts 171°
2026-04-18 13:03 -37.61891 144.82853 1154 ft 147 kts 171°
2026-04-18 13:04 -37.62909 144.83043 957 ft 149 kts 171°
2026-04-18 13:04 -37.63931 144.83234 764 ft 149 kts 170°
2026-04-18 13:04 -37.64993 144.83435 628 ft 169 kts 170°
2026-04-18 13:04 -37.66272 144.83683 868 ft 202 kts 170°
2026-04-18 13:05 -37.67687 144.83937 1733 ft 203 kts 172°
2026-04-18 13:05 -37.69048 144.84180 2944 ft 191 kts 171°
2026-04-18 13:05 -37.70366 144.84416 3812 ft 195 kts 172°
2026-04-18 13:05 -37.71794 144.84676 3782 ft 216 kts 172°
2026-04-18 13:06 -37.73329 144.84956 3835 ft 231 kts 172°
2026-04-18 13:06 -37.74959 144.85406 3850 ft 248 kts 153°
2026-04-18 13:06 -37.76218 144.86904 3908 ft 256 kts 118°
2026-04-18 13:06 -37.76637 144.89075 3962 ft 252 kts 93°
2026-04-18 13:07 -37.76695 144.91227 3963 ft 239 kts 92°
2026-04-18 13:07 -37.76735 144.93263 3972 ft 225 kts 92°
2026-04-18 13:07 -37.76763 144.95219 3969 ft 222 kts 92°
2026-04-18 13:07 -37.76789 144.97169 3970 ft 222 kts 92°
2026-04-18 13:08 -37.76816 144.99115 3970 ft 222 kts 92°
2026-04-18 13:08 -37.76789 145.01039 3960 ft 222 kts 79°
2026-04-18 13:08 -37.76036 145.02680 3899 ft 219 kts 37°
2026-04-18 13:08 -37.74622 145.03320 3948 ft 221 kts
2026-04-18 13:09 -37.73074 145.03257 4018 ft 224 kts 353°
2026-04-18 13:09 -37.71524 145.03002 3997 ft 225 kts 352°
2026-04-18 13:09 -37.69977 145.02731 3981 ft 224 kts 352°
2026-04-18 13:09 -37.68434 145.02461 3977 ft 224 kts 352°
2026-04-18 13:10 -37.66888 145.02190 3977 ft 224 kts 352°
2026-04-18 13:10 -37.65342 145.01919 3976 ft 224 kts 352°
2026-04-18 13:10 -37.63794 145.01647 3977 ft 224 kts 352°
2026-04-18 13:10 -37.62249 145.01376 3978 ft 224 kts 352°
2026-04-18 13:11 -37.60702 145.01100 3976 ft 224 kts 349°
2026-04-18 13:11 -37.59280 145.00373 3965 ft 221 kts 325°
2026-04-18 13:11 -37.58036 144.99227 4006 ft 222 kts 322°
2026-04-18 13:11 -37.56806 144.98042 3993 ft 222 kts 322°
2026-04-18 13:12 -37.55578 144.96863 3976 ft 222 kts 322°
2026-04-18 13:12 -37.54350 144.95688 3976 ft 222 kts 321°
2026-04-18 13:12 -37.53120 144.94505 3979 ft 222 kts 322°
2026-04-18 13:12 -37.51893 144.93324 3978 ft 222 kts 322°
2026-04-18 13:13 -37.50664 144.92147 3978 ft 222 kts 322°
2026-04-18 13:13 -37.49869 144.91338 3971 ft 222 kts 314°
2026-04-18 13:13 -37.49176 144.88916 3969 ft 235 kts 266°
2026-04-18 13:13 -37.49286 144.87529 3976 ft 246 kts 262°
2026-04-18 13:14 -37.49524 144.85338 3975 ft 257 kts 262°
2026-04-18 13:14 -37.49771 144.83085 3980 ft 262 kts 262°
2026-04-18 13:14 -37.50021 144.80811 3986 ft 262 kts 262°
2026-04-18 13:14 -37.50268 144.78539 3994 ft 262 kts 262°
2026-04-18 13:15 -37.50562 144.76275 3992 ft 262 kts 253°
2026-04-18 13:15 -37.51523 144.74377 3985 ft 259 kts 220°
2026-04-18 13:15 -37.53103 144.73300 4016 ft 261 kts 198°
2026-04-18 13:15 -37.54901 144.72991 4003 ft 263 kts 177°
2026-04-18 13:16 -37.56703 144.73378 4016 ft 264 kts 171°
2026-04-18 13:16 -37.58515 144.73756 4001 ft 264 kts 173°
2026-04-18 13:16 -37.60339 144.73768 4000 ft 263 kts 185°
2026-04-18 13:16 -37.62147 144.73620 3996 ft 255 kts 184°
2026-04-18 13:17 -37.63869 144.73486 3999 ft 241 kts 184°
2026-04-18 13:17 -37.65487 144.73366 4030 ft 225 kts 184°
2026-04-18 13:17 -37.67006 144.73254 4029 ft 210 kts 184°
2026-04-18 13:17 -37.68381 144.73154 4035 ft 191 kts 184°
2026-04-18 13:18 -37.69701 144.73058 3994 ft 190 kts 184°
2026-04-18 13:18 -37.71021 144.72997 3992 ft 190 kts 182°
2026-04-18 13:18 -37.72344 144.72975 3995 ft 190 kts 182°
2026-04-18 13:18 -37.73670 144.72952 3999 ft 191 kts 182°
2026-04-18 13:19 -37.74996 144.72928 4002 ft 191 kts 181°
2026-04-18 13:19 -37.76321 144.72910 4001 ft 191 kts 181°
2026-04-18 13:19 -37.77647 144.72892 4003 ft 191 kts 182°
2026-04-18 13:19 -37.78976 144.72875 4003 ft 191 kts 182°
2026-04-18 13:20 -37.80300 144.72920 3985 ft 191 kts 169°
2026-04-18 13:20 -37.81503 144.73607 3984 ft 192 kts 143°
2026-04-18 13:20 -37.82420 144.74831 4015 ft 193 kts 127°
2026-04-18 13:20 -37.83168 144.76244 4027 ft 193 kts 123°
2026-04-18 13:21 -37.83850 144.77652 3951 ft 184 kts 118°
2026-04-18 13:21 -37.84099 144.79213 3797 ft 183 kts 88°
2026-04-18 13:21 -37.83996 144.80819 3706 ft 183 kts 85°
2026-04-18 13:21 -37.83860 144.82418 3604 ft 183 kts 84°
2026-04-18 13:22 -37.83706 144.84007 3478 ft 182 kts 82°
2026-04-18 13:22 -37.83229 144.85458 3206 ft 181 kts 49°
2026-04-18 13:22 -37.82174 144.86262 2972 ft 180 kts 13°
2026-04-18 13:22 -37.80928 144.86363 2764 ft 179 kts 356°
2026-04-18 13:23 -37.79731 144.86159 2541 ft 165 kts 351°
2026-04-18 13:23 -37.78645 144.85943 2342 ft 154 kts 352°
2026-04-18 13:23 -37.77589 144.85748 2122 ft 153 kts 352°
2026-04-18 13:23 -37.76537 144.85554 1911 ft 153 kts 352°
2026-04-18 13:24 -37.75487 144.85362 1701 ft 152 kts 352°
2026-04-18 13:24 -37.74457 144.85173 1494 ft 152 kts 352°
2026-04-18 13:24 -37.73402 144.84980 1274 ft 150 kts 352°
2026-04-18 13:24 -37.72382 144.84794 1056 ft 147 kts 353°
2026-04-18 13:25 -37.71379 144.84615 859 ft 145 kts 354°
2026-04-18 13:25 -37.70392 144.84437 695 ft 146 kts 353°
2026-04-18 13:25 -37.69393 144.84253 531 ft 144 kts 353°
2026-04-18 13:25 -37.68405 144.84069 365 ft 143 kts 353°
2026-04-18 13:26 -37.67558 144.83927 369 ft 91 kts 351°
2026-04-18 13:26 -37.67147 144.83841 381 ft 30 kts 353°
2026-04-18 13:26 -37.66935 144.83868 385 ft 31 kts 21°
2026-04-18 13:26 -37.66829 144.83926 385 ft 0 kts 24°
2026-04-18 13:27 -37.66814 144.83934 385 ft 8 kts 24°
2026-04-18 13:27 -37.66745 144.83988 385 ft 14 kts 49°
2026-04-18 13:28 -37.66728 144.84124 380 ft 19 kts 113°
2026-04-18 13:28 -37.66853 144.84206 377 ft 23 kts 171°
2026-04-18 13:28 -37.66982 144.84229 374 ft 18 kts 172°
2026-04-18 13:28 -37.67121 144.84255 372 ft 22 kts 172°
2026-04-18 13:29 -37.67288 144.84286 369 ft 26 kts 171°
2026-04-18 13:29 -37.67466 144.84322 369 ft 15 kts 160°
2026-04-18 13:29 -37.67471 144.84433 361 ft 15 kts 80°
2026-04-18 13:29 -37.67454 144.84583 358 ft 19 kts 81°
2026-04-18 13:30 -37.67412 144.84641 365 ft 10 kts 352°
2026-04-18 13:30 -37.67352 144.84630 362 ft 0 kts 352°